Location: Newark
(49.8969°N, 3.3422°E)
Time: 11:07:42
(UTC+00:00)

deb Explorer IX - Visible Passes

Search period start: 26 January 2020 00:00
Search period end: 05 February 2020 00:00
Orbit: 548 x 1101 km, 38.8° (Epoch: 26 January)

Date Brightness Start Highest point End Pass type
(mag) Time Alt. Az. Time Alt. Az. Time Alt. Az.
28 Jan ? 20:05:16 10° SSW 20:06:06 13° SSW 20:06:06 13° SSW visible
29 Jan ? 19:42:55 10° SSW 19:45:12 18° S 19:45:12 18° S visible
30 Jan ? 19:20:36 10° SSW 19:24:14 21° SSE 19:24:14 21° SSE visible
31 Jan ? 18:58:18 10° SSW 19:02:53 21° SSE 19:03:14 21° SSE visible
31 Jan ? 20:43:19 10° SW 20:44:35 16° SW 20:44:35 16° SW visible
01 Feb ? 18:36:01 10° SSW 18:40:26 21° SSE 18:42:10 19° SE visible
01 Feb ? 20:20:58 10° SW 20:23:31 22° SW 20:23:31 22° SW visible
02 Feb ? 18:13:45 10° SSW 18:18:00 20° SSE 18:21:04 15° ESE visible
02 Feb ? 19:58:39 10° SW 20:02:25 27° SSW 20:02:25 27° SSW visible
03 Feb ? 17:51:29 10° SSW 17:55:34 20° SSE 17:59:57 10° ESE visible
03 Feb ? 19:36:21 10° SW 19:41:17 30° S 19:41:17 30° S visible
03 Feb ? 21:22:37 10° WSW 21:22:38 10° WSW 21:22:38 10° WSW visible
04 Feb ? 17:29:15 10° SSW 17:33:09 19° SSE 17:37:26 10° ESE visible
04 Feb ? 19:14:04 10° SW 19:19:13 30° S 19:20:09 29° SSE visible
04 Feb ? 21:00:17 10° WSW 21:01:29 15° WSW 21:01:29 15° WSW visible
